Regional Weather Roundup
Issued by NWS

Home | Current Version | Previous Version | Text Only | Print | Product List | Glossary On
Versions: 1 2 3 4 5 6 7 8 9 10 11 12 13 14 15 16 17 18 19 20 21 22 23 24 25 26 27 28 29 30 31 32 33 34 35 36 37 38 39 40 41 42 43 44 45 46 47 48 49 50
715
ASUS44 KLIX 202010
RWRLA
LOUISIANA WEATHER ROUNDUP
NATIONAL WEATHER SERVICE NEW ORLEANS LA
300 PM CDT SUN APR 20 2014

NOTE: "FAIR" INDICATES FEW OR NO CLOUDS BELOW 12,000 FEET WITH NO
      SIGNIFICANT WEATHER AND/OR OBSTRUCTIONS TO VISIBILITY.
      SKY/WX - SKY CONDITION AND SIGNIFICANT WEATHER.
      TMP - AIR TEMPERATURE.    DP   - DEWPOINT TEMPERATURE.
      RH  - RELATIVE HUMIDITY.  PRES - PRESSURE.
      HX  - HEAT INDEX.         WCI  - WIND CHILL INDEX.

*  THESE STATIONS ARE NOT NWS OR FAA STATIONS AND ARE NOT UNDER
   NWS QUALITY CONTROL.

LAZ040-048-061>063-065-066-069-202100-
SOUTHEAST LOUISIANA

CITY           SKY/WX    TMP DP  RH WIND       PRES   REMARKS
N.O. AUDUBON     N/A     84  56  37 MISG        N/A
N.O. INTL ARPT MOSUNNY   80  47  31 N7        30.14F
N.O. LAKEFRONT SUNNY     76  56  49 NW5       30.14F
N.O. DOWNTOWN* FAIR      81  46  30 CALM      30.14F
SLIDELL        SUNNY     82  51  34 N13G18    30.12F
BATON ROUGE    SUNNY     85  50  29 NE5       30.12F
BOOTHVILLE     SUNNY     68  58  70 E8        30.17F
BELLE CHASSE   MOSUNNY   79  54  41 VRB5      30.13F
BOGALUSA*        N/A     82  48  31 E5        30.15F
GALLIANO*      CLEAR     80  60  51 NE3       30.14F
NEW ROADS*     FAIR      80  51  35 CALM      30.13F
GONZALES*      FAIR      80  52  37 CALM      30.12F
HAMMOND*       SUNNY     84  46  26 CALM      30.14F
HOUMA*         MOSUNNY   81  59  47 SE6       30.13F
PORT FOURCHON* CLEAR     72  59  64 VRB7      30.17F

$$

LAZ041-044-053-054-202100-
SOUTHWEST LOUISIANA

CITY           SKY/WX    TMP DP  RH WIND       PRES   REMARKS
LAKE CHARLES   MOSUNNY   81  54  39 S8        30.13F
LAFAYETTE      SUNNY     80  55  42 W3        30.12F
PATTERSON      SUNNY     81  54  39 NW6       30.17F
SALT POINT       N/A     81  59  47 VRB3      30.13F
NEW IBERIA     SUNNY     82  54  37 VRB3      30.13F
CHENAULT AIRPK MOSUNNY   82  54  36 SE7       30.14

$$

LAZ027-028-202100-
CENTRAL LOUISIANA

CITY           SKY/WX    TMP DP  RH WIND       PRES   REMARKS
FORT POLK      MOSUNNY   80  53  39 SE9       30.12F
ALEXANDRIA INT SUNNY     81  52  36 CALM      30.11F
ALEXANDRIA     SUNNY     82  52  35 SW3       30.12F

$$

LAZ001-002-202100-
NORTHWEST LOUISIANA

CITY           SKY/WX    TMP DP  RH WIND       PRES   REMARKS
SHREVEPORT     PTSUNNY   82  55  39 VRB5      30.12S
BARKSDALE AFB  MOSUNNY   81  53  38 S10       30.12F
DTN SHREVEPORT PTSUNNY   79  57  46 SE9       30.12F

$$

LAZ014-016-202100-
NORTHEAST LOUISIANA

CITY           SKY/WX    TMP DP  RH WIND       PRES   REMARKS
MONROE         SUNNY     81  50  33 CALM      30.13F
TALLULAH       SUNNY     81  51  35 E7        30.13F

$$




USA.gov is the U.S. government's official web portal to all federal, state and local government web resources and services.